Lexington Weather

Lexington, Massachusetts, USA

44°F
5/12/2021 4:55am 
  • Lexington Conditions: Clear
  • Temperature: 44.4°F / 6.9°CColder 0.2°F than last hour.
  • Dew Point: 33.4°FIncreased 0.7°Fsince last hour.
  • Relative Humidity: 65%Increased 2.0% since last hour.
  • Wind: Wind from SSW SSW 2 mph, 10-min avg: 1 mph, gust: 4 mph
  • Barometer: 29.93 in Steady
  • Visibility: 10 miles
  • Rain Today: 0.00 in
  •   

Regional Weather Roundup
for Boston / Norton, MA

        
000
ASUS41 KBOX 081805
RWRBOX

REGIONAL WEATHER ROUNDUP
NATIONAL WEATHER SERVICE BOSTON/NORTON MA
200 PM EDT SAT MAY 08 2021

NOTE:  "FAIR" INDICATES FEW OR NO CLOUDS BELOW 12,000 FEET WITH NO 
SIGNIFICANT WEATHER AND/OR OBSTRUCTIONS TO VISIBILITY.

MAZALL-081900-
EASTERN MASSACHUSETTS
  
CITY           SKY/WX    TMP DP  RH WIND       PRES   REMARKS
BOSTON         CLOUDY    53  37  54 E13       29.85S                  
6HR MIN TEMP:  51; 6HR MAX TEMP:  55;                                

BEVERLY        MOSUNNY   53  36  52 VRB7      29.84S                  
LAWRENCE       PTSUNNY   55  34  45 CALM      29.84F                  
BEDFORD        PTSUNNY   55  34  45 VRB3      29.82F                  
BLUE HILL        N/A     52  33  48 NE9       29.82F                  
NORWOOD        SUNNY     55  35  47 E6        29.84F                  
MARSHFIELD     MOSUNNY   52  41  66 VRB7      29.85S                  
PLYMOUTH       SUNNY     52  35  52 NE12      29.83F                  
TAUNTON        CLOUDY    54  38  54 VRB3      29.83F                  
NEW BEDFORD    CLOUDY    54  37  52 NE9       29.83S                  
$$

MAZALL-081900-
CAPE COD AND THE ISLANDS
  
CITY           SKY/WX    TMP DP  RH WIND       PRES   REMARKS
FALMOUTH       MOSUNNY   52  36  54 NE14      29.84S                  
HYANNIS        MOSUNNY   52  42  69 N12       29.81F                  
CHATHAM        CLOUDY    50  37  61 NE8G17    29.84R                  
PROVINCETOWN   MOSUNNY   50  42  74 N13       29.85S                  
NANTUCKET      PTSUNNY   52  40  63 N14       29.83S                  
MARTHAS VNYRD  PTSUNNY   55  40  56 N16       29.82S                  
$$
 
MAZALL-081900-
CENTRAL AND WESTERN MASSACHUSETTS
  
CITY           SKY/WX    TMP DP  RH WIND       PRES   REMARKS
WORCESTER      MOSUNNY   55  32  41 E10       29.82F                  
6HR MIN TEMP:  47; 6HR MAX TEMP:  55;                                

FITCHBURG      PTSUNNY   55  32  41 E10       29.83F                  
ORANGE         CLOUDY    57  29  34 NE6       29.83F                  
SPRINGFIELD    CLOUDY    58  29  34 SE7       29.81F                  
WESTFIELD      MOSUNNY   59  32  36 CALM      29.82F                  
NORTH ADAMS    CLOUDY    57  32  38 E7        29.81F                  
PITTSFIELD     PTSUNNY   52  35  52 SW7       29.81F                  
$$
 
RIZALL-081900-
RHODE ISLAND
  
CITY           SKY/WX    TMP DP  RH WIND       PRES   REMARKS
PROVIDENCE     PTSUNNY   58  36  43 NE13      29.83F                  
6HR MIN TEMP:  49; 6HR MAX TEMP:  60;                                

NEWPORT        CLOUDY    54  39  57 NE12G20   29.83S                  
BLOCK ISLAND   SUNNY     53  33  46 W8        29.85S                  
SMITHFIELD       N/A     54  36  50 E7        29.83F                  
WESTERLY       PTSUNNY   53  30  41 SW8       29.83F                  
$$
 
CTZALL-081900-
CONNECTICUT
  
CITY           SKY/WX    TMP DP  RH WIND       PRES   REMARKS
BRADLEY INTL   CLOUDY    58  32  37 S3        29.82F                  
6HR MIN TEMP:  48; 6HR MAX TEMP:  59;                                

HARTFORD       MOSUNNY   59  31  34 W6        29.82F                  
BRIDGEPORT     CLOUDY    54  30  40 CALM      29.85F                  
DANBURY        CLOUDY    53  35  50 CALM      29.85F                  
GROTON         CLOUDY    54  39  57 SW10      29.83F                  
NEW HAVEN      CLOUDY    56  36  47 SW5       29.85F                  
CHESTER        PTSUNNY   57  32  38 VRB3      29.83F                  
MERIDEN        CLOUDY    56  34  43 VRB6      29.84F                  
WILLIMANTIC    MOSUNNY   57  29  34 CALM      29.82F                  
OXFORD         CLOUDY    50  36  58 CALM      29.85F                  
$$

MEZ002-015-021-024-NHZ003-005-008-011-012-014-VTZ005-008-081900-
NORTHERN NEW ENGLAND
  
CITY           SKY/WX    TMP DP  RH WIND       PRES   REMARKS
PORTLAND ME    CLOUDY    53  35  50 NE9       29.83F                  
6HR MIN TEMP:  44; 6HR MAX TEMP:  53;                                

BANGOR ME      CLOUDY    49  35  58 N13       29.83F                  
CONCORD NH     CLOUDY    56  30  37 VRB3      29.82F                  
MANCHESTER NH  CLOUDY    56  29  35 VRB5      29.81F                  
NASHUA NH      CLOUDY    54  31  41 CALM      29.83F                  
PORTSMOUTH NH  CLOUDY    54  33  44 SE9       29.84S                  
JAFFREY NH     CLOUDY    53  28  38 CALM      29.82F                  
KEENE NH       CLOUDY    56  31  38 VRB3      29.82F                  
BURLINGTON VT  CLOUDY    57  33  40 NW3       29.84F                  
MT. WASHINGTON CLOUDY    32  25  74 N8          N/A  WCI  25          
$$

NYZ052-076-081900-
EASTERN NEW YORK
  
CITY           SKY/WX    TMP DP  RH WIND       PRES   REMARKS
ALBANY         CLOUDY    52  36  54 S8        29.84F                  
6HR MIN TEMP:  47; 6HR MAX TEMP:  53;                                

NEW YORK CITY  LGT RAIN  51  41  68 SE6       29.85S                  
6HR MIN TEMP:  50; 6HR MAX TEMP:  55; 6HR PCP:  0.04;                

$$
 
ANZALL-081900-
MARINE OBSERVATIONS
  
STATION/POSITION TIME  TEMP    WIND        PRES    VSBY  WAVE
                       AIR SEA DIR/SP/G                  HT/PER
                 (UTC) (F)     (DEG/KT/KT) (MB)    (MI)  (FT/S)
BOSTON BUOY      1740   47 47   10/ 10/ 12 1010.7R
BUZZARDS BAY     1700           30/ 11/ 12 1011.2F
NANTUCKET SOUND  1740      52                N/A
MASS BAY-STELLWA 1704   47      10/ 10/ 12 1009.5F  1 7/8  3/ 5
ISLE OF SHOALS   1700   47      60/  7/  8 1010.1F
S OF BLOCK IS    1726      49                N/A           3/ 8
$$

......................KEY.........................
  SKY/WX - SKY CONDITION/PRESENT WEATHER
  TMP    - TEMPERATURE IN FAHRENHEIT
  DWPT   - DEWPOINT IN FAHRENHEIT
  RH     - RELATIVE HUMIDITY IN PERCENT
  WIND   - DIRECTION AND SPEED IN MPH
  PRES   - MEAN SEA LEVEL PRESSURE IN INCHES OF HG
  WCI    - WIND CHILL INDEX
  VSB    - VISIBILITY IN MILES
  HX     - HEAT INDEX
  TC     - TEMPERATURE IN CELSIUS
  VRB    - VARIABLE WIND DIRECTION
  N/A    - NOT AVAILABLE
  
      

Other recent Regional Weather Roundups

Wed May 12, 4:04am

Wed May 12, 3:04am

Wed May 12, 2:04am

Wed May 12, 1:04am

Wed May 12, 12:05am

Tue May 11, 11:05pm

Tue May 11, 10:04pm

Tue May 11, 9:05pm

Tue May 11, 8:05pm

Tue May 11, 7:04pm

Tue May 11, 6:04pm

Tue May 11, 5:04pm

Tue May 11, 4:05pm

Tue May 11, 3:04pm

Tue May 11, 2:05pm

Tue May 11, 1:04pm

Tue May 11, 12:05pm

Tue May 11, 11:05am

Tue May 11, 10:04am

Tue May 11, 9:04am

Tue May 11, 8:04am

Tue May 11, 7:05am

Tue May 11, 6:04am

Tue May 11, 5:04am

Tue May 11, 4:04am

Tue May 11, 3:04am

Tue May 11, 2:04am

Tue May 11, 1:04am

Tue May 11, 12:04am

Mon May 10, 11:04pm

Mon May 10, 10:04pm

Mon May 10, 9:05pm

Mon May 10, 8:04pm

Mon May 10, 7:05pm

Mon May 10, 6:04pm

Mon May 10, 5:04pm

Mon May 10, 4:04pm

Mon May 10, 3:04pm

Mon May 10, 2:04pm

Mon May 10, 1:04pm

Mon May 10, 12:04pm

Mon May 10, 11:05am

Mon May 10, 10:04am

Mon May 10, 9:04am

Mon May 10, 8:04am

Mon May 10, 7:04am

Mon May 10, 6:04am

Mon May 10, 5:05am

Mon May 10, 4:04am

Mon May 10, 3:04am

Mon May 10, 2:04am

Mon May 10, 1:04am

Mon May 10, 12:04am

Sun May 9, 11:04pm

Sun May 9, 10:04pm

Sun May 9, 9:04pm

Sun May 9, 8:04pm

Sun May 9, 7:05pm

Sun May 9, 6:04pm

Sun May 9, 5:04pm

Sun May 9, 4:04pm

Sun May 9, 3:04pm

Sun May 9, 2:04pm

Sun May 9, 1:05pm

Sun May 9, 12:04pm

Sun May 9, 11:05am

Sun May 9, 10:04am

Sun May 9, 9:04am

Sun May 9, 8:04am

Sun May 9, 7:04am

Sun May 9, 6:04am

Sun May 9, 5:04am

Sun May 9, 4:04am

Sun May 9, 3:04am

Sun May 9, 2:04am

Sun May 9, 1:05am

Sun May 9, 12:04am

Sat May 8, 11:05pm

Sat May 8, 10:04pm

Sat May 8, 9:05pm

Sat May 8, 8:04pm

Sat May 8, 7:04pm

Sat May 8, 6:04pm

Sat May 8, 5:05pm

Sat May 8, 4:04pm

Sat May 8, 3:05pm

Sat May 8, 1:05pm

Sat May 8, 12:04pm

Sat May 8, 11:05am

Sat May 8, 10:04am

Sat May 8, 9:04am

Sat May 8, 8:04am

Sat May 8, 7:04am

Sat May 8, 6:04am

Sat May 8, 5:04am

Sat May 8, 4:04am

Sat May 8, 3:04am

Sat May 8, 2:04am

Sat May 8, 1:05am

Sat May 8, 12:04am

Fri May 7, 11:04pm

Fri May 7, 10:05pm

Fri May 7, 9:04pm

Fri May 7, 8:04pm

Fri May 7, 7:05pm

Fri May 7, 6:04pm

Fri May 7, 5:05pm

Fri May 7, 4:04pm

Fri May 7, 3:04pm

Fri May 7, 2:05pm

Fri May 7, 1:04pm

Fri May 7, 12:04pm

Fri May 7, 11:05am

Fri May 7, 10:04am

Fri May 7, 9:04am

Fri May 7, 8:05am

Fri May 7, 7:04am

Fri May 7, 6:04am

Fri May 7, 5:04am

Fri May 7, 4:04am

Fri May 7, 3:04am

Fri May 7, 2:05am

Fri May 7, 1:04am

Fri May 7, 12:05am

Thu May 6, 11:04pm

Thu May 6, 10:04pm

Thu May 6, 9:05pm

Thu May 6, 8:04pm

Thu May 6, 7:04pm

Thu May 6, 6:04pm

Thu May 6, 5:05pm

Thu May 6, 4:04pm

Thu May 6, 3:04pm

Thu May 6, 2:05pm

Thu May 6, 1:04pm

Thu May 6, 12:04pm

Thu May 6, 11:04am

Thu May 6, 10:04am

Thu May 6, 9:04am

Thu May 6, 8:04am

Thu May 6, 7:04am

Thu May 6, 6:04am

Thu May 6, 5:04am

Thu May 6, 4:04am

Thu May 6, 3:04am

Thu May 6, 2:05am

Thu May 6, 1:04am

Thu May 6, 12:05am

Wed May 5, 11:04pm

Wed May 5, 10:04pm

Wed May 5, 9:05pm

Wed May 5, 8:04pm

Wed May 5, 7:05pm

Wed May 5, 6:04pm

Wed May 5, 5:04pm

Wed May 5, 4:04pm

Wed May 5, 3:04pm

Wed May 5, 2:05pm

Wed May 5, 1:05pm

Wed May 5, 12:04pm

Wed May 5, 11:05am

Wed May 5, 10:04am

Wed May 5, 9:04am

Wed May 5, 8:04am

Wed May 5, 7:04am

Wed May 5, 6:05am

Wed May 5, 5:04am

Meta data:

ID: 186e2e5b-879b-436e-8e49-15e1fef5a46f
Link: https://api.weather.gov/products/186e2e5b-879b-436e-8e49-15e1fef5a46f